{"data":{"norad_id":56359,"intl_designator":"2023-058AU","name":"STARLINK-5551","alt_names":[],"object_type":"PAYLOAD","status":"ACTIVE","operator":null,"country":"US","launch_date":"2023-04-27","launch_site_code":"AFWTR","launch_vehicle":null,"mission":null,"orbit_class":"UNKNOWN","rcs_meters":null,"size_class":null,"mass_kg":null,"dimensions":null,"purposes":["comms"],"wikipedia_slug":null,"has_3d_model":false,"image_url":null,"decayed_at":null,"tle_current":{"epoch":"2026-05-25T00:17:27.885120Z","epoch_age_seconds":80904,"freshness":"FRESH","line1":"1 56359U 23058AU  26145.01212830 -.00009423  00000+0 -64909-3 0  9991","line2":"2 56359  97.4453 144.9060 0002232  87.4159 272.7324 15.05695142169606","mean_motion":15.05695142,"eccentricity":0.0002232,"inclination_deg":97.4453,"raan_deg":144.906,"arg_perigee_deg":87.4159,"mean_anomaly_deg":272.7324,"bstar":-0.00064909,"rev_number":16960,"period_min":95.636889555695,"perigee_km":547.82646872651,"apogee_km":550.91890905163,"semimajor_km":6927.5096888891,"source":"CELESTRAK","updated_at":"2026-05-25T13:38:18.009268Z"}}}